sat.trackr.live / text

‹ back to catalog

STARLINK-1169

NORAD 45061 · 2020-006T

PAYLOAD ACTIVE UNKNOWN

§ Identity

Operator
Country
US
Launch date
2020-01-29
Launch site
AFETR
Launch vehicle
Mass (kg)
RCS (m²)

Purposes: comms

External: N2YO · Heavens-Above · Gunter

§ Orbital elements

Epoch: 2026-05-25T02:52:17.923296Z

Period
93.70 min
Inclination
53.1573°
Eccentricity
0.0003022
Mean motion
15.36792623 rev/d
Perigee alt
453.5 km
Apogee alt
457.7 km
Semi-major
6,833.7 km
B*
1.5064e-3
RAAN
284.2951°
Arg perigee
264.5291°
Mean anomaly
95.5368°
Rev number
34,827

§ Raw data

STARLINK-11691 45061U 20006T   26145.11965189  .00054970  00000+0  15064-2 0  99942 45061  53.1573 284.2951 0003022 264.5291  95.5368 15.36792623348273

JSON: /api/v1/satellites/45061 · /tle

For live sub-satellite position, see the globe view (requires WebGL).

§ Visibility from observer

Set your observer location to see the next 7 days of passes ≥ 10°. The values pass through the URL so the page stays shareable.

No JS? Fill the form by hand. The geolocation button needs JavaScript.